| time (UTC) | temp F | wind direction | speed MPH | gust MPH | rain 1hr in | rain 24hr in | rain mn in | humidity % | barometer mb |
| 20260502223028 | 71 | 240 | 6.0 | 10.0 | 0.00 | 0.00 | 0.00 | 58 | 1010.6 |
| 20260502222514 | 71 | 247 | 5.0 | 11.0 | 0.00 | 0.00 | 0.00 | 58 | 1010.6 |
| 20260502222015 | 72 | 223 | 5.0 | 11.0 | 0.00 | 0.00 | 0.00 | 59 | 1010.8 |
| 20260502221530 | 72 | 252 | 6.0 | 11.0 | 0.00 | 0.00 | 0.00 | 59 | 1010.8 |
| 20260502221011 | 72 | 250 | 8.0 | 11.0 | 0.00 | 0.00 | 0.00 | 60 | 1010.9 |
| 20260502220514 | 73 | 215 | 5.0 | 11.0 | 0.00 | 0.00 | 0.00 | 61 | 1010.9 |
| 20260502220031 | 72 | 282 | 5.0 | 11.0 | 0.00 | 0.00 | 0.00 | 63 | 1011.1 |
| 20260502215511 | 72 | 263 | 6.0 | 11.0 | 0.00 | 0.00 | 0.00 | 59 | 1011.1 |
| 20260502215012 | 72 | 271 | 7.0 | 11.0 | 0.00 | 0.00 | 0.00 | 61 | 1011.1 |
| 20260502214527 | 72 | 268 | 7.0 | 11.0 | 0.00 | 0.00 | 0.00 | 64 | 1011.3 |
| 20260502214016 | 71 | 324 | 2.0 | 9.0 | 0.00 | 0.00 | 0.00 | 66 | 1011.3 |
| 20260502213514 | 71 | 284 | 2.0 | 9.0 | 0.00 | 0.00 | 0.00 | 64 | 1011.3 |
| 20260502213028 | 71 | 265 | 0.0 | 9.0 | 0.00 | 0.00 | 0.00 | 61 | 1011.5 |
| 20260502212512 | 71 | 236 | 4.0 | 11.0 | 0.00 | 0.00 | 0.00 | 63 | 1011.5 |
| 20260502212012 | 71 | 221 | 6.0 | 11.0 | 0.00 | 0.00 | 0.00 | 62 | 1011.7 |
| 20260502211527 | 69 | 216 | 7.0 | 11.0 | 0.00 | 0.00 | 0.00 | 65 | 1011.7 |
| 20260502211012 | 69 | 265 | 6.0 | 13.0 | 0.00 | 0.00 | 0.00 | 67 | 1011.8 |
| 20260502210512 | 69 | 242 | 7.0 | 13.0 | 0.00 | 0.00 | 0.00 | 63 | 1011.8 |
| 20260502210028 | 71 | 241 | 7.0 | 12.0 | 0.00 | 0.00 | 0.00 | 64 | 1011.8 |
| 20260502205512 | 70 | 243 | 6.0 | 11.0 | 0.00 | 0.00 | 0.00 | 65 | 1011.9 |
| 20260502205017 | 69 | 265 | 6.0 | 11.0 | 0.00 | 0.00 | 0.00 | 63 | 1012.0 |
| 20260502204534 | 71 | 267 | 8.0 | 11.0 | 0.00 | 0.00 | 0.00 | 65 | 1012.1 |
| 20260502204012 | 71 | 256 | 8.0 | 10.0 | 0.00 | 0.00 | 0.00 | 66 | 1012.1 |
| 20260502203515 | 70 | 238 | 7.0 | 10.0 | 0.00 | 0.00 | 0.00 | 63 | 1012.1 |
| 20260502203036 | 70 | 245 | 7.0 | 10.0 | 0.00 | 0.00 | 0.00 | 64 | 1012.1 |
| 20260502202510 | 70 | 242 | 6.0 | 10.0 | 0.00 | 0.00 | 0.00 | 64 | 1012.1 |
| 20260502202017 | 69 | 221 | 5.0 | 10.0 | 0.00 | 0.00 | 0.00 | 65 | 1012.2 |
| 20260502201527 | 70 | 266 | 4.0 | 10.0 | 0.00 | 0.00 | 0.00 | 65 | 1012.2 |
| 20260502201013 | 69 | 265 | 6.0 | 10.0 | 0.00 | 0.00 | 0.00 | 68 | 1012.2 |
| 20260502200511 | 68 | 222 | 4.0 | 11.0 | 0.00 | 0.00 | 0.00 | 68 | 1012.2 |
| 20260502200048 | 67 | 230 | 6.0 | 11.0 | 0.00 | 0.00 | 0.00 | 67 | 1012.3 |
| 20260502195512 | 67 | 263 | 6.0 | 11.0 | 0.00 | 0.00 | 0.00 | 68 | 1012.3 |
| 20260502195014 | 67 | 237 | 6.0 | 13.0 | 0.00 | 0.00 | 0.00 | 67 | 1012.4 |
| 20260502194529 | 67 | 238 | 8.0 | 13.0 | 0.00 | 0.00 | 0.00 | 66 | 1012.4 |
| 20260502194014 | 66 | 261 | 6.0 | 11.0 | 0.00 | 0.00 | 0.00 | 69 | 1012.4 |
| 20260502193512 | 66 | 246 | 7.0 | 11.0 | 0.00 | 0.00 | 0.00 | 70 | 1012.3 |
| 20260502193030 | 65 | 245 | 6.0 | 12.0 | 0.00 | 0.00 | 0.00 | 70 | 1012.4 |
| 20260502192514 | 64 | 233 | 7.0 | 13.0 | 0.00 | 0.00 | 0.00 | 73 | 1012.4 |
| 20260502192012 | 64 | 235 | 8.0 | 13.0 | 0.00 | 0.00 | 0.00 | 72 | 1012.5 |
| 20260502191529 | 64 | 242 | 9.0 | 13.0 | 0.00 | 0.00 | 0.00 | 71 | 1012.7 |
| 20260502191012 | 64 | 264 | 7.0 | 10.0 | 0.00 | 0.00 | 0.00 | 74 | 1012.7 |
| 20260502190513 | 63 | 250 | 6.0 | 10.0 | 0.00 | 0.00 | 0.00 | 75 | 1012.8 |
| 20260502190028 | 62 | 267 | 6.0 | 11.0 | 0.00 | 0.00 | 0.00 | 76 | 1012.8 |
| 20260502185512 | 62 | 220 | 6.0 | 11.0 | 0.00 | 0.00 | 0.00 | 76 | 1012.8 |
| 20260502185011 | 61 | 262 | 7.0 | 12.0 | 0.00 | 0.00 | 0.00 | 77 | 1012.8 |
| 20260502184529 | 62 | 248 | 7.0 | 12.0 | 0.00 | 0.00 | 0.00 | 77 | 1012.8 |
| 20260502184011 | 61 | 269 | 7.0 | 11.0 | 0.00 | 0.00 | 0.00 | 76 | 1012.8 |
| 20260502183513 | 62 | 271 | 6.0 | 14.0 | 0.00 | 0.00 | 0.00 | 75 | 1012.8 |
| 20260502183035 | 62 | 240 | 8.0 | 14.0 | 0.00 | 0.00 | 0.00 | 74 | 1012.7 |
| 20260502182514 | 62 | 238 | 9.0 | 12.0 | 0.00 | 0.00 | 0.00 | 74 | 1012.7 |
| 20260502182012 | 63 | 248 | 7.0 | 12.0 | 0.00 | 0.00 | 0.00 | 74 | 1012.7 |
| 20260502181529 | 63 | 257 | 7.0 | 13.0 | 0.00 | 0.00 | 0.00 | 73 | 1012.7 |
| 20260502181011 | 64 | 289 | 6.0 | 15.0 | 0.00 | 0.00 | 0.00 | 75 | 1012.7 |
| 20260502180517 | 64 | 271 | 9.0 | 15.0 | 0.00 | 0.00 | 0.00 | 71 | 1012.6 |
| 20260502170512 | 61 | 245 | 10.0 | 14.0 | 0.00 | 0.00 | 0.00 | 74 | 1012.4 |
| 20260502164015 | 62 | 272 | 5.0 | 11.0 | 0.00 | 0.00 | 0.00 | 78 | 1012.3 |
| 20260502163513 | 62 | 228 | 6.0 | 10.0 | 0.00 | 0.00 | 0.00 | 79 | 1012.4 |
| 20260502163030 | 61 | 223 | 7.0 | 10.0 | 0.00 | 0.00 | 0.00 | 79 | 1012.4 |
| 20260502162512 | 61 | 237 | 5.0 | 8.0 | 0.00 | 0.00 | 0.00 | 81 | 1012.4 |
| 20260502162012 | 60 | 228 | 5.0 | 8.0 | 0.00 | 0.00 | 0.00 | 83 | 1012.3 |
| 20260502161528 | 59 | 253 | 4.0 | 8.0 | 0.00 | 0.00 | 0.00 | 83 | 1012.3 |
| 20260502161014 | 59 | 242 | 5.0 | 8.0 | 0.00 | 0.00 | 0.00 | 84 | 1012.3 |
| 20260502160514 | 58 | 212 | 4.0 | 8.0 | 0.00 | 0.00 | 0.00 | 84 | 1012.3 |
| 20260502152012 | 54 | 216 | 1.0 | 4.0 | 0.00 | 0.00 | 0.00 | 91 | 1012.0 |
| 20260502151530 | 54 | 191 | 2.0 | 4.0 | 0.00 | 0.00 | 0.00 | 91 | 1011.9 |
| 20260502151011 | 54 | 223 | 1.0 | 4.0 | 0.00 | 0.00 | 0.00 | 91 | 1012.0 |
| 20260502150512 | 54 | 194 | 1.0 | 3.0 | 0.00 | 0.00 | 0.00 | 91 | 1012.0 |
| 20260502130511 | 51 | 260 | 2.0 | 5.0 | 0.00 | 0.00 | 0.00 | 91 | 1011.0 |
| 20260502123518 | 50 | 0 | 0.0 | 1.0 | 0.00 | 0.00 | 0.00 | 90 | 1010.9 |
| 20260502123029 | 50 | 0 | 0.0 | 1.0 | 0.00 | 0.00 | 0.00 | 90 | 1010.8 |
| 20260502122515 | 50 | 0 | 0.0 | 1.0 | 0.00 | 0.00 | 0.00 | 89 | 1010.7 |
| 20260502122012 | 50 | 0 | 0.0 | 2.0 | 0.00 | 0.00 | 0.00 | 89 | 1010.8 |
| 20260502121530 | 50 | 0 | 0.0 | 3.0 | 0.00 | 0.00 | 0.00 | 89 | 1010.7 |
| 20260502121011 | 50 | 81 | 1.0 | 3.0 | 0.00 | 0.00 | 0.00 | 89 | 1010.9 |
| 20260502120512 | 50 | 81 | 2.0 | 3.0 | 0.00 | 0.00 | 0.00 | 89 | 1010.8 |
| 20260502115512 | 51 | 80 | 1.0 | 3.0 | 0.00 | 0.00 | 0.00 | 87 | 1010.9 |
| 20260502115014 | 51 | 89 | 1.0 | 3.0 | 0.00 | 0.00 | 0.00 | 87 | 1010.9 |
| 20260502114528 | 51 | 90 | 2.0 | 3.0 | 0.00 | 0.00 | 0.00 | 88 | 1010.9 |
| 20260502114014 | 52 | 0 | 0.0 | 0.0 | 0.00 | 0.00 | 0.00 | 88 | 1011.0 |
| 20260502113514 | 52 | 0 | 0.0 | 0.0 | 0.00 | 0.00 | 0.00 | 88 | 1011.0 |
| 20260502113029 | 52 | 0 | 0.0 | 0.0 | 0.00 | 0.00 | 0.00 | 88 | 1011.1 |
| 20260502112512 | 52 | 0 | 0.0 | 0.0 | 0.00 | 0.00 | 0.00 | 88 | 1011.1 |
| 20260502112016 | 52 | 0 | 0.0 | 1.0 | 0.00 | 0.00 | 0.00 | 88 | 1011.1 |
| 20260502111527 | 52 | 0 | 0.0 | 1.0 | 0.00 | 0.00 | 0.00 | 88 | 1011.1 |
| 20260502111011 | 52 | 0 | 0.0 | 2.0 | 0.00 | 0.00 | 0.00 | 88 | 1011.1 |
| 20260502110513 | 52 | 0 | 0.0 | 2.0 | 0.00 | 0.00 | 0.00 | 88 | 1011.1 |
| 20260502110032 | 52 | 207 | 0.0 | 3.0 | 0.00 | 0.00 | 0.00 | 87 | 1011.1 |
| 20260502105513 | 52 | 0 | 0.0 | 3.0 | 0.00 | 0.00 | 0.00 | 87 | 1011.2 |
| 20260502105012 | 53 | 197 | 2.0 | 3.0 | 0.00 | 0.00 | 0.00 | 87 | 1011.3 |
| 20260502104527 | 53 | 194 | 2.0 | 4.0 | 0.00 | 0.00 | 0.00 | 86 | 1011.2 |
| 20260502104014 | 53 | 206 | 2.0 | 5.0 | 0.00 | 0.00 | 0.00 | 86 | 1011.3 |
| 20260502103514 | 53 | 215 | 2.0 | 5.0 | 0.00 | 0.00 | 0.00 | 85 | 1011.3 |
| 20260502103056 | 53 | 234 | 3.0 | 5.0 | 0.00 | 0.00 | 0.00 | 85 | 1011.2 |
| 20260502102514 | 54 | 211 | 2.0 | 4.0 | 0.00 | 0.00 | 0.00 | 84 | 1011.2 |
| 20260502102013 | 54 | 198 | 3.0 | 4.0 | 0.00 | 0.00 | 0.00 | 83 | 1011.2 |
| 20260502101545 | 54 | 201 | 2.0 | 5.0 | 0.00 | 0.00 | 0.00 | 83 | 1011.1 |
| 20260502101011 | 54 | 225 | 2.0 | 5.0 | 0.00 | 0.00 | 0.00 | 84 | 1011.1 |
| 20260502100512 | 54 | 215 | 3.0 | 5.0 | 0.00 | 0.00 | 0.00 | 84 | 1011.2 |
| 20260502091530 | 54 | 254 | 2.0 | 4.0 | 0.00 | 0.00 | 0.00 | 84 | 1011.4 |
| 20260502091011 | 54 | 259 | 2.0 | 4.0 | 0.00 | 0.00 | 0.00 | 85 | 1011.4 |
| 20260502090511 | 54 | 219 | 2.0 | 4.0 | 0.00 | 0.00 | 0.00 | 84 | 1011.5 |
| 20260502071527 | 57 | 325 | 2.0 | 4.0 | 0.00 | 0.00 | 0.00 | 84 | 1011.8 |
| 20260502071011 | 58 | 0 | 0.0 | 0.0 | 0.00 | 0.00 | 0.00 | 81 | 1011.8 |
| 20260502070513 | 58 | 0 | 0.0 | 2.0 | 0.00 | 0.00 | 0.00 | 81 | 1011.8 |
| 20260502070029 | 58 | 0 | 0.0 | 2.0 | 0.00 | 0.00 | 0.00 | 81 | 1011.8 |
| 20260502065512 | 58 | 0 | 0.0 | 4.0 | 0.00 | 0.00 | 0.00 | 80 | 1011.8 |
| 20260502065019 | 59 | 0 | 0.0 | 5.0 | 0.00 | 0.00 | 0.00 | 80 | 1011.8 |
| 20260502064536 | 59 | 0 | 1.0 | 5.0 | 0.00 | 0.00 | 0.00 | 79 | 1011.6 |
| 20260502064015 | 59 | 191 | 2.0 | 7.0 | 0.00 | 0.00 | 0.00 | 80 | 1011.6 |
| 20260502063512 | 59 | 193 | 2.0 | 7.0 | 0.00 | 0.00 | 0.00 | 79 | 1011.6 |
| 20260502063029 | 59 | 202 | 3.0 | 7.0 | 0.00 | 0.00 | 0.00 | 79 | 1011.6 |
| 20260502062513 | 59 | 216 | 3.0 | 9.0 | 0.00 | 0.00 | 0.00 | 79 | 1011.5 |
| 20260502062014 | 59 | 225 | 3.0 | 9.0 | 0.00 | 0.00 | 0.00 | 79 | 1011.6 |
| 20260502061529 | 59 | 215 | 5.0 | 9.0 | 0.00 | 0.00 | 0.00 | 79 | 1011.7 |
| 20260502061015 | 59 | 193 | 4.0 | 8.0 | 0.00 | 0.00 | 0.00 | 80 | 1011.6 |
| 20260502060512 | 60 | 182 | 1.0 | 7.0 | 0.00 | 0.00 | 0.00 | 79 | 1011.6 |
| 20260502060027 | 60 | 178 | 3.0 | 8.0 | 0.00 | 0.00 | 0.00 | 78 | 1011.7 |
| 20260502055512 | 60 | 195 | 4.0 | 8.0 | 0.00 | 0.00 | 0.00 | 78 | 1011.7 |
| 20260502055014 | 60 | 217 | 5.0 | 8.0 | 0.00 | 0.00 | 0.00 | 78 | 1011.8 |
| 20260502054541 | 60 | 214 | 4.0 | 9.0 | 0.00 | 0.00 | 0.00 | 78 | 1011.7 |
| 20260502054011 | 60 | 205 | 4.0 | 9.0 | 0.00 | 0.00 | 0.00 | 79 | 1011.6 |
| 20260502053514 | 60 | 223 | 5.0 | 9.0 | 0.00 | 0.00 | 0.00 | 78 | 1011.6 |
| 20260502053032 | 60 | 232 | 5.0 | 8.0 | 0.00 | 0.00 | 0.00 | 79 | 1011.5 |
| 20260502052512 | 60 | 226 | 3.0 | 6.0 | 0.00 | 0.00 | 0.00 | 78 | 1011.5 |
| 20260502052017 | 61 | 223 | 3.0 | 6.0 | 0.00 | 0.00 | 0.00 | 78 | 1011.5 |
| 20260502051529 | 61 | 236 | 3.0 | 7.0 | 0.00 | 0.00 | 0.00 | 77 | 1011.5 |
| 20260502051014 | 61 | 226 | 3.0 | 10.0 | 0.00 | 0.00 | 0.00 | 77 | 1011.4 |
| 20260502050514 | 62 | 228 | 5.0 | 10.0 | 0.00 | 0.00 | 0.00 | 77 | 1011.4 |
| 20260502050028 | 62 | 228 | 6.0 | 11.0 | 0.00 | 0.00 | 0.00 | 77 | 1011.3 |
| 20260502045514 | 62 | 229 | 6.0 | 11.0 | 0.00 | 0.00 | 0.00 | 77 | 1011.4 |
| 20260502045012 | 62 | 230 | 7.0 | 11.0 | 0.00 | 0.00 | 0.00 | 76 | 1011.3 |
| 20260502044528 | 63 | 235 | 6.0 | 12.0 | 0.00 | 0.00 | 0.00 | 76 | 1011.3 |
| 20260502044013 | 63 | 247 | 6.0 | 12.0 | 0.00 | 0.00 | 0.00 | 75 | 1011.3 |
| 20260502043516 | 64 | 228 | 7.0 | 12.0 | 0.00 | 0.00 | 0.00 | 75 | 1011.2 |
| 20260502043029 | 64 | 238 | 7.0 | 11.0 | 0.00 | 0.00 | 0.00 | 76 | 1011.2 |
| 20260502042511 | 64 | 248 | 7.0 | 11.0 | 0.00 | 0.00 | 0.00 | 75 | 1011.2 |
| 20260502042013 | 64 | 237 | 5.0 | 13.0 | 0.00 | 0.00 | 0.00 | 75 | 1011.1 |
| 20260502041534 | 65 | 227 | 7.0 | 13.0 | 0.00 | 0.00 | 0.00 | 74 | 1011.1 |
| 20260502041014 | 65 | 246 | 9.0 | 13.0 | 0.00 | 0.00 | 0.00 | 73 | 1010.9 |
| 20260502040512 | 65 | 230 | 9.0 | 13.0 | 0.00 | 0.00 | 0.00 | 74 | 1010.9 |
| 20260502040029 | 65 | 257 | 5.0 | 9.0 | 0.00 | 0.00 | 0.00 | 75 | 1010.8 |
| 20260502035514 | 66 | 244 | 4.0 | 8.0 | 0.00 | 0.00 | 0.00 | 73 | 1010.7 |
| 20260502035015 | 66 | 223 | 3.0 | 8.0 | 0.00 | 0.00 | 0.00 | 73 | 1010.7 |
| 20260502034528 | 66 | 247 | 5.0 | 8.0 | 0.00 | 0.00 | 0.00 | 73 | 1010.5 |
| 20260502034014 | 66 | 246 | 3.0 | 7.0 | 0.00 | 0.00 | 0.00 | 73 | 1010.5 |
| 20260502033512 | 67 | 232 | 3.0 | 7.0 | 0.00 | 0.00 | 0.00 | 73 | 1010.5 |
| 20260502033039 | 67 | 248 | 3.0 | 8.0 | 0.00 | 0.00 | 0.00 | 72 | 1010.4 |
| 20260502032516 | 67 | 261 | 5.0 | 8.0 | 0.00 | 0.00 | 0.00 | 72 | 1010.4 |
| 20260502032013 | 67 | 257 | 5.0 | 8.0 | 0.00 | 0.00 | 0.00 | 71 | 1010.4 |
| 20260502031528 | 68 | 248 | 4.0 | 9.0 | 0.00 | 0.00 | 0.00 | 71 | 1010.3 |
| 20260502031011 | 68 | 246 | 4.0 | 9.0 | 0.00 | 0.00 | 0.00 | 70 | 1010.2 |
| 20260502030513 | 68 | 252 | 5.0 | 8.0 | 0.00 | 0.00 | 0.00 | 69 | 1010.3 |
| 20260502030028 | 69 | 252 | 4.0 | 8.0 | 0.00 | 0.00 | 0.00 | 68 | 1010.3 |
| 20260502025512 | 69 | 250 | 4.0 | 8.0 | 0.00 | 0.00 | 0.00 | 67 | 1010.2 |
| 20260502025011 | 69 | 248 | 4.0 | 8.0 | 0.00 | 0.00 | 0.00 | 67 | 1010.2 |
| 20260502024529 | 69 | 250 | 4.0 | 8.0 | 0.00 | 0.00 | 0.00 | 66 | 1010.2 |
| 20260502024015 | 70 | 238 | 4.0 | 7.0 | 0.00 | 0.00 | 0.00 | 65 | 1010.2 |
| 20260502023512 | 70 | 250 | 4.0 | 7.0 | 0.00 | 0.00 | 0.00 | 65 | 1010.2 |
| 20260502023029 | 70 | 238 | 3.0 | 7.0 | 0.00 | 0.00 | 0.00 | 64 | 1010.0 |
| 20260502022512 | 71 | 232 | 3.0 | 5.0 | 0.00 | 0.00 | 0.00 | 64 | 1010.0 |
| 20260502022020 | 71 | 240 | 3.0 | 5.0 | 0.00 | 0.00 | 0.00 | 63 | 1010.0 |
| 20260502021530 | 72 | 251 | 3.0 | 5.0 | 0.00 | 0.00 | 0.00 | 63 | 1010.0 |
| 20260502021016 | 72 | 239 | 3.0 | 7.0 | 0.00 | 0.00 | 0.00 | 62 | 1010.0 |
| 20260502020513 | 73 | 239 | 3.0 | 7.0 | 0.00 | 0.00 | 0.00 | 62 | 1010.0 |
| 20260502020028 | 73 | 231 | 4.0 | 7.0 | 0.00 | 0.00 | 0.00 | 63 | 1010.0 |
| 20260502015514 | 74 | 246 | 3.0 | 7.0 | 0.00 | 0.00 | 0.00 | 63 | 1010.0 |
| 20260502015017 | 75 | 251 | 4.0 | 7.0 | 0.00 | 0.00 | 0.00 | 62 | 1010.0 |
| 20260502014527 | 75 | 229 | 4.0 | 8.0 | 0.00 | 0.00 | 0.00 | 63 | 1010.0 |
| 20260502014017 | 75 | 254 | 3.0 | 8.0 | 0.00 | 0.00 | 0.00 | 62 | 1010.1 |
| 20260502013512 | 75 | 242 | 5.0 | 8.0 | 0.00 | 0.00 | 0.00 | 62 | 1010.1 |
| 20260502013030 | 75 | 236 | 2.0 | 6.0 | 0.00 | 0.00 | 0.00 | 62 | 1010.0 |
| 20260502012512 | 76 | 243 | 2.0 | 6.0 | 0.00 | 0.00 | 0.00 | 61 | 1010.1 |
| 20260502012012 | 76 | 260 | 3.0 | 6.0 | 0.00 | 0.00 | 0.00 | 62 | 1010.1 |
| 20260502011530 | 77 | 233 | 3.0 | 6.0 | 0.00 | 0.00 | 0.00 | 62 | 1010.1 |
| 20260502011011 | 77 | 250 | 3.0 | 5.0 | 0.00 | 0.00 | 0.00 | 62 | 1010.1 |
| 20260502010511 | 78 | 236 | 2.0 | 5.0 | 0.00 | 0.00 | 0.00 | 56 | 1010.1 |
| 20260502010030 | 78 | 212 | 2.0 | 5.0 | 0.00 | 0.00 | 0.00 | 55 | 1010.1 |
| 20260502005515 | 79 | 228 | 2.0 | 5.0 | 0.00 | 0.00 | 0.00 | 56 | 1010.2 |
| 20260502005011 | 78 | 239 | 3.0 | 5.0 | 0.00 | 0.00 | 0.00 | 59 | 1010.2 |
| 20260502004532 | 78 | 249 | 3.0 | 5.0 | 0.00 | 0.00 | 0.00 | 60 | 1010.3 |
| 20260502004012 | 78 | 232 | 3.0 | 6.0 | 0.00 | 0.00 | 0.00 | 59 | 1010.3 |
| 20260502003513 | 78 | 255 | 3.0 | 6.0 | 0.00 | 0.00 | 0.00 | 61 | 1010.3 |
| 20260502003029 | 77 | 254 | 3.0 | 7.0 | 0.00 | 0.00 | 0.00 | 60 | 1010.2 |
| 20260502002512 | 77 | 251 | 3.0 | 7.0 | 0.00 | 0.00 | 0.00 | 57 | 1010.2 |
| 20260502002012 | 78 | 277 | 4.0 | 8.0 | 0.00 | 0.00 | 0.00 | 59 | 1010.4 |
| 20260502001530 | 78 | 264 | 4.0 | 8.0 | 0.00 | 0.00 | 0.00 | 56 | 1010.4 |
| 20260502001012 | 79 | 248 | 3.0 | 7.0 | 0.00 | 0.00 | 0.00 | 55 | 1010.3 |
| 20260502000514 | 79 | 254 | 3.0 | 7.0 | 0.00 | 0.00 | 0.00 | 55 | 1010.4 |
| 20260502000029 | 79 | 275 | 3.0 | 8.0 | 0.00 | 0.00 | 0.00 | 53 | 1010.4 |
| 20260501235513 | 79 | 234 | 3.0 | 8.0 | 0.00 | 0.00 | 0.00 | 56 | 1010.5 |
| 20260501235016 | 80 | 223 | 4.0 | 7.0 | 0.00 | 0.00 | 0.00 | 57 | 1010.6 |
| 20260501234533 | 80 | 238 | 2.0 | 5.0 | 0.00 | 0.00 | 0.00 | 53 | 1010.7 |
| 20260501234012 | 80 | 243 | 3.0 | 7.0 | 0.00 | 0.00 | 0.00 | 51 | 1010.7 |
| 20260501233511 | 80 | 223 | 2.0 | 7.0 | 0.00 | 0.00 | 0.00 | 51 | 1010.6 |
| 20260501233027 | 81 | 245 | 3.0 | 7.0 | 0.00 | 0.00 | 0.00 | 56 | 1010.7 |
| 20260501232514 | 81 | 153 | 1.0 | 8.0 | 0.00 | 0.00 | 0.00 | 51 | 1010.8 |
| 20260501232010 | 81 | 217 | 4.0 | 8.0 | 0.00 | 0.00 | 0.00 | 51 | 1010.8 |
| 20260501231529 | 81 | 250 | 3.0 | 6.0 | 0.00 | 0.00 | 0.00 | 52 | 1010.9 |
| 20260501231011 | 81 | 223 | 4.0 | 7.0 | 0.00 | 0.00 | 0.00 | 54 | 1011.0 |
| 20260501230512 | 81 | 221 | 3.0 | 7.0 | 0.00 | 0.00 | 0.00 | 56 | 1011.0 |
| 20260501230028 | 81 | 192 | 2.0 | 7.0 | 0.00 | 0.00 | 0.00 | 52 | 1011.0 |
| 20260501225513 | 80 | 232 | 2.0 | 8.0 | 0.00 | 0.00 | 0.00 | 54 | 1011.1 |
| 20260501225011 | 80 | 249 | 4.0 | 8.0 | 0.00 | 0.00 | 0.00 | 53 | 1011.2 |
| 20260501224529 | 81 | 244 | 3.0 | 8.0 | 0.00 | 0.00 | 0.00 | 54 | 1011.3 |
| 20260501224019 | 80 | 256 | 2.0 | 8.0 | 0.00 | 0.00 | 0.00 | 53 | 1011.4 |
| 20260501223514 | 80 | 267 | 5.0 | 9.0 | 0.00 | 0.00 | 0.00 | 52 | 1011.4 |